Theta_e
290 291 291 291 291 291 290 290 287 290 289 293 294 294 296 299 301 301 302 304 305 307 308 310 311 311 310 309 309 311 308 308 307 308 309 309 306 304 303 302 300 298 296 294
287 290 290 290 291 292 290 290 289 289 289 295 298 299 298 299 300 300 300 302 304 306 310 311 312 311 310 309 309 310 309 308 308 308 306 306 304 302 302 300 298 296 294 292
284 288 289 284 289 290 291 291 291 287 292 298 296 297 297 297 298 299 300 301 301 303 307 311 312 312 311 308 307 309 308 308 308 307 305 304 304 301 299 297 295 293 292 290
283 285 277 289 293 293 292 295 294 295 296 297 297 298 298 298 298 298 300 301 301 302 302 306 311 311 309 308 308 307 306 307 306 305 303 302 300 299 297 295 294 291 289 288
282 281 285 289 293 293 291 291 296 295 295 296 297 297 296 299 299 299 300 301 302 303 303 303 308 309 308 307 307 306 306 305 305 303 300 299 299 297 296 293 291 290 288 287
283 281 280 287 293 295 294 286 296 296 295 295 295 291 292 297 298 299 300 301 301 302 303 304 305 308 307 305 305 305 305 304 304 302 300 299 299 296 294 293 290 288 287 287
282 284 286 291 295 296 286 287 295 296 295 295 292 293 296 296 295 298 299 300 302 303 302 302 305 306 304 303 304 305 303 303 301 300 300 300 298 295 293 290 288 286 285 285
282 283 283 295 296 289 291 295 296 296 295 294 294 293 293 293 293 295 297 299 301 301 302 303 305 306 303 302 301 302 301 300 299 298 299 297 294 292 291 289 286 285 284 283
288 287 292 294 295 296 297 296 295 295 294 293 291 291 291 291 291 292 294 295 299 301 302 302 303 304 302 302 301 300 300 297 297 297 296 295 292 291 289 288 286 284 283 282
291 291 288 289 292 295 296 295 295 295 293 291 290 290 289 289 288 289 290 293 296 297 298 300 302 303 302 301 299 298 296 294 294 294 293 293 292 291 289 288 286 284 283 282
286 288 289 289 289 290 290 291 291 290 289 288 288 287 288 288 288 289 292 293 294 295 296 297 299 300 300 300 298 297 295 293 292 292 291 291 291 291 290 290 289 286 285 284
286 292 289 286 288 290 289 289 289 290 290 290 290 290 290 290 291 292 293 294 294 294 295 297 298 298 299 298 298 296 293 292 292 290 289 289 288 285 286 288 287 287 287 286
288 291 289 290 291 291 291 291 292 292 292 290 291 291 291 290 291 291 292 293 292 293 294 295 297 297 298 296 296 295 294 291 290 290 290 288 287 286 285 285 286 286 286 286
289 290 288 290 289 291 291 291 292 291 291 290 290 291 290 289 289 289 290 292 292 292 292 294 294 294 295 296 295 294 292 288 291 291 290 289 288 288 288 285 283 284 285 285
287 288 288 290 289 288 288 287 286 286 287 287 289 288 288 287 287 288 290 291 291 291 291 292 291 291 293 293 293 292 291 289 290 291 290 289 289 288 287 286 285 284 283 283
288 288 287 286 286 286 286 286 285 285 287 287 287 287 288 288 288 288 289 289 288 288 290 288 288 291 291 292 292 291 291 289 288 289 288 287 287 287 285 285 285 283 282 283
285 284 284 283 284 285 285 285 285 286 286 286 286 287 287 287 287 287 287 288 288 288 288 287 287 289 290 290 290 290 290 289 288 287 286 286 286 285 286 285 284 283 283 283
287 287 287 285 285 284 284 286 286 286 286 286 287 286 285 283 284 285 285 285 285 285 287 288 288 288 288 289 288 289 289 288 286 287 286 285 285 285 285 285 284 283 282 281
288 287 286 286 285 285 284 285 285 286 286 286 286 285 285 284 285 285 285 282 281 283 286 287 285 285 287 287 286 287 287 287 286 286 285 284 285 285 284 284 284 283 281 280
286 287 287 285 286 286 285 285 285 285 286 285 285 280 282 281 280 280 281 284 286 287 286 287 286 287 289 289 287 288 287 287 287 285 285 284 284 284 284 284 284 282 281 280
287 286 286 286 286 286 285 285 284 284 285 284 283 282 280 281 280 276 280 285 287 285 285 282 286 287 288 288 288 288 287 287 288 287 285 284 284 284 284 284 283 282 281 280
286 286 286 286 285 284 285 285 285 284 283 280 277 275 274 279 279 277 281 286 287 284 284 286 287 286 286 285 286 287 287 287 288 288 287 285 284 284 284 283 282 282 280 280
285 285 285 281 281 284 284 283 282 282 281 280 280 280 280 283 283 280 282 285 284 282 283 286 285 285 284 284 284 284 285 285 286 287 287 286 285 285 284 283 282 282 281 279
285 285 284 285 280 282 281 285 284 284 283 281 280 281 282 282 281 283 285 287 286 282 281 283 282 281 281 282 283 283 285 285 286 286 287 286 286 285 284 283 282 282 281 280
284 284 284 283 283 282 283 284 283 284 283 284 284 284 284 284 284 287 281 282 279 278 279 278 278 278 281 282 283 283 284 285 285 286 286 286 285 285 285 283 282 282 281 280
283 282 283 284 283 283 283 283 283 285 286 286 287 285 285 284 283 283 284 281 279 281 278 278 277 278 279 281 282 282 283 284 285 285 285 285 285 285 283 283 282 281 280 280
282 279 281 281 282 282 282 283 282 283 283 283 284 285 284 284 281 280 279 279 282 282 281 277 276 278 278 280 281 282 283 284 284 284 285 285 285 284 282 282 281 280 280 278
Wind_Speed
10 9 6 8 9 10 8 7 9 9 10 9 5 5 2 4 4 4 5 8 7 7 4 4 6 6 8 9 10 12 12 12 12 12 12 12 13 13 13 14 13 13 13 11
7 5 9 7 12 12 6 4 3 7 5 3 5 7 6 5 6 6 5 5 8 8 8 8 7 7 8 9 10 11 11 11 9 11 12 12 12 12 13 12 12 13 13 13
6 5 7 6 10 10 6 5 9 7 9 8 5 8 6 5 6 7 7 7 7 7 8 8 8 8 9 8 8 11 10 9 11 12 12 12 11 13 13 14 14 13 13 14
5 5 4 8 0 6 8 3 3 6 6 6 9 8 5 3 4 7 7 6 7 7 8 7 6 7 8 10 10 10 9 10 10 11 12 12 13 13 12 12 14 13 12 13
6 4 4 0 3 8 9 6 4 9 8 6 6 4 4 5 5 5 6 7 7 7 10 7 7 8 9 9 9 9 10 11 12 13 13 13 14 14 12 12 11 12 13 14
3 5 9 8 2 1 4 3 8 7 9 8 9 4 3 5 6 7 7 6 7 8 6 3 3 7 9 9 9 10 10 11 11 12 13 14 13 13 11 10 11 10 11 12
2 4 5 4 1 2 8 10 7 7 6 7 6 4 6 1 4 5 5 8 7 6 6 5 4 4 6 6 7 5 7 9 10 10 11 10 10 9 11 11 11 11 11 10
3 5 6 3 1 7 4 4 8 6 5 10 9 7 6 4 4 7 9 9 9 7 6 4 4 5 4 4 4 6 7 7 8 9 9 8 12 10 11 12 12 11 11 9
2 2 3 4 2 1 1 5 4 7 5 8 8 5 5 4 5 5 6 6 5 6 6 4 4 3 0 1 5 6 6 5 6 7 7 11 12 12 10 11 10 10 9 9
4 4 5 6 5 5 5 6 6 6 7 6 7 6 5 3 4 5 6 7 6 7 7 6 3 1 3 6 6 6 6 7 6 8 8 9 7 8 9 9 9 10 10 9
4 2 6 9 7 6 9 8 10 9 6 6 7 5 5 5 6 6 6 6 6 6 6 8 7 4 4 6 7 6 6 7 8 6 8 9 8 10 11 12 14 14 13 12
5 5 4 3 3 4 8 6 7 10 9 8 8 6 5 5 5 5 7 7 8 8 8 8 7 7 5 6 7 7 6 6 7 7 7 7 7 3 3 7 14 15 16 14
6 6 4 7 6 3 9 6 7 8 6 6 4 4 3 3 4 5 4 5 5 7 7 8 8 7 7 5 6 7 7 6 6 7 9 9 8 9 8 3 6 10 13 16
9 10 6 1 5 6 8 7 7 6 5 5 4 4 3 4 4 6 6 6 6 5 6 6 7 9 7 6 6 7 6 8 8 8 8 8 10 10 8 10 10 9 12 12
1 3 5 8 7 6 5 5 6 5 3 3 3 3 3 5 5 5 6 6 6 6 5 6 5 9 7 6 6 7 6 5 7 7 7 8 8 8 8 9 8 8 7 7
7 7 8 7 7 6 5 4 5 4 3 1 1 3 4 4 5 6 6 6 5 7 8 8 10 10 7 6 6 6 7 10 8 7 6 8 8 9 9 9 9 10 10 11
8 5 5 4 7 7 7 5 5 4 2 2 4 4 5 6 6 6 7 6 6 6 6 7 11 10 9 8 6 6 6 6 10 7 8 10 10 10 10 10 11 11 10 12
1 4 7 6 8 7 4 6 6 6 6 6 5 5 6 5 7 8 7 6 7 8 8 8 8 8 8 8 8 7 7 8 7 10 8 9 10 10 10 10 10 11 10 12
5 7 8 7 7 7 7 8 8 7 6 6 5 7 6 7 7 7 6 5 7 10 10 6 6 7 9 10 8 6 7 8 8 9 9 9 10 10 11 11 12 12 11 12
2 2 4 3 4 6 7 6 6 6 6 5 5 4 6 7 6 6 5 8 11 10 8 10 9 10 11 11 9 8 8 9 10 9 9 10 11 11 11 14 13 12 13 12
5 5 6 7 7 7 8 7 7 7 8 6 7 7 7 7 5 5 5 7 7 6 7 6 7 9 8 10 9 8 9 8 10 10 10 11 10 10 11 12 12 12 12 11
5 6 8 7 6 8 8 7 7 7 7 6 5 6 4 8 6 5 8 9 7 8 5 6 7 11 10 14 10 10 10 10 10 10 10 11 11 11 11 12 12 12 12 12
6 6 7 6 8 9 8 7 8 8 9 8 8 8 7 7 4 3 7 7 5 6 5 6 9 14 16 10 11 12 11 11 10 10 11 11 12 12 12 12 12 12 12 13
4 5 6 6 4 5 8 13 10 11 9 6 6 9 7 5 5 7 9 10 13 9 6 7 9 11 12 9 10 11 10 10 10 10 11 12 10 11 11 11 12 12 12 14
6 5 4 6 6 6 7 9 5 6 6 8 10 9 9 7 9 8 5 7 9 7 6 8 9 10 7 8 10 11 10 9 9 9 10 10 11 11 11 12 12 12 12 13
5 5 5 7 6 5 5 4 5 5 4 7 8 5 6 7 7 8 8 8 6 7 6 6 5 6 6 8 10 12 11 9 9 8 9 10 10 10 11 11 12 12 12 12
6 5 5 5 5 5 5 5 4 7 6 6 8 8 7 7 6 6 7 6 6 6 6 5 5 6 6 8 10 10 9 8 8 6 6 7 8 9 10 11 11 12 11 12
Wind_Direction
207 179 169 173 175 175 188 178 167 209 197 227 171 161 58 1 336 27 325 289 263 271 286 249 201 181 187 184 183 181 180 184 185 174 170 170 169 169 166 169 170 167 158 156
185 198 182 192 205 187 190 126 103 131 233 145 110 104 67 10 353 17 0 347 307 279 262 249 209 186 179 174 177 176 182 187 167 162 164 170 167 163 162 162 161 158 161 155
213 153 120 273 189 181 171 168 153 162 208 161 100 87 64 10 355 334 328 312 300 279 261 244 214 187 186 158 152 175 180 167 164 162 167 168 165 161 164 165 157 161 156 153
145 111 174 250 315 159 138 118 146 97 114 133 136 128 111 25 352 324 319 304 308 298 288 256 208 172 144 152 161 169 164 158 158 161 161 162 163 168 165 162 164 159 156 152
138 183 270 328 182 149 160 210 199 137 129 120 128 110 31 11 349 306 312 308 299 294 288 270 194 157 145 150 155 157 165 165 168 164 161 164 171 170 164 159 157 159 157 152
142 147 202 223 171 21 115 242 198 149 143 147 138 135 236 320 332 333 333 323 326 329 317 298 152 144 147 157 162 179 175 172 165 165 169 175 173 167 162 157 153 151 151 157
162 182 285 260 300 334 136 229 145 148 139 139 125 158 156 39 4 340 333 337 343 9 18 13 47 105 126 147 193 152 140 150 160 165 173 168 155 156 154 151 145 148 149 151
100 109 252 23 339 165 214 46 122 123 114 106 116 121 120 85 34 16 9 1 5 14 11 27 78 107 138 180 121 119 133 149 162 158 156 156 149 148 151 148 147 152 149 151
149 190 339 329 124 67 64 110 126 115 122 121 120 116 113 81 40 21 9 4 357 9 4 22 19 13 260 241 140 136 142 151 142 155 152 154 153 153 150 159 157 158 164 167
80 6 16 2 20 61 91 89 97 106 116 108 118 112 97 75 34 23 11 9 354 7 2 342 334 261 205 169 157 151 157 149 152 160 154 157 156 162 158 167 165 165 169 176
63 89 77 27 36 59 72 82 88 65 73 86 88 45 45 34 27 23 18 13 16 8 349 335 341 300 219 184 164 172 165 163 166 163 175 162 179 176 179 186 180 174 184 177
190 208 119 150 113 100 86 82 87 98 67 54 76 72 63 61 29 17 14 10 12 5 360 345 337 325 284 193 180 171 176 180 177 172 176 170 170 155 352 188 187 187 167 177
185 142 114 117 101 67 104 101 90 95 102 103 61 62 44 30 15 353 360 9 5 343 335 336 345 342 332 234 189 191 204 188 176 182 180 179 178 172 187 45 159 171 181 185
90 97 77 153 136 103 104 106 98 91 90 87 80 56 40 19 358 359 349 330 325 324 314 320 334 326 343 311 232 223 211 187 188 197 197 188 190 187 185 182 181 188 185 173
17 53 127 117 109 109 111 120 107 103 93 69 57 58 26 4 343 322 310 310 317 318 322 322 310 298 311 323 277 250 225 209 207 203 201 196 186 188 187 181 177 163 144 147
65 85 104 122 137 143 136 149 138 156 154 152 339 316 308 304 300 302 302 307 329 318 315 312 306 305 304 290 284 268 241 229 204 199 191 189 190 189 184 181 176 171 174 172
106 106 118 148 178 188 200 190 168 158 163 246 261 274 292 295 294 290 290 288 281 269 272 286 288 300 301 299 282 279 256 234 210 200 195 196 192 194 193 184 178 179 180 170
82 180 185 173 184 189 205 199 199 201 209 227 236 258 274 276 266 275 275 284 293 288 277 272 274 280 288 290 289 288 280 252 210 211 204 195 197 191 190 188 185 176 168 168
179 186 189 196 176 178 193 207 214 218 216 226 231 244 248 254 257 261 273 287 290 285 286 279 276 280 282 282 274 272 278 264 226 213 204 196 195 191 185 187 183 180 170 166
58 99 148 195 198 198 224 233 232 234 238 221 235 252 265 257 248 249 240 260 265 258 270 280 285 291 296 292 268 266 267 265 242 219 203 196 196 197 193 191 187 179 172 174
267 265 257 244 245 239 229 231 224 239 249 222 219 236 241 266 271 255 271 284 272 258 260 273 285 293 289 288 281 275 268 265 248 226 209 200 198 196 195 190 186 181 176 174
253 254 259 256 247 261 254 240 231 246 243 242 233 240 248 270 262 238 226 249 272 261 262 277 297 294 296 295 285 277 269 263 253 228 215 200 193 196 195 186 185 182 176 172
261 249 256 247 243 247 270 251 241 224 239 238 240 240 223 238 227 223 282 246 233 232 235 269 276 289 296 292 285 281 269 264 253 233 216 204 197 195 192 191 186 176 175 170
264 269 251 257 255 259 260 267 253 243 224 242 245 248 237 249 262 225 237 253 262 258 253 266 269 277 289 287 280 281 272 265 257 237 217 203 199 192 187 185 182 180 173 166
270 270 264 280 273 261 258 260 254 247 238 243 242 243 234 230 220 257 215 227 231 238 253 261 263 272 281 286 287 288 280 268 255 241 223 202 197 191 188 183 183 176 172 167
266 258 253 253 246 254 253 250 244 260 263 277 270 260 261 241 231 239 252 245 228 233 242 254 254 265 276 284 282 285 284 277 257 238 221 206 198 190 181 177 173 171 168 164
267 250 268 274 261 242 241 242 244 258 249 243 255 264 256 258 246 237 240 247 241 238 250 251 245 261 265 278 283 285 282 274 259 242 216 202 191 182 177 174 168 165 162 158